[[{"header":{"parameterUnit":"m.s-1","parameterCategory":1,"la1":30.2991,"la2":30.254,"lo1":-89.0895,"lo2":-89.0444,"dy":0.0017,"dx":0.0017,"nx":28,"ny":28,"refTime":"2025-04-19T21:00:00:Z","depth":0,"parameterNumber":2,"parameterNumberName":"U-component_of_WINDS"},"data":[0,0,0,0,0,0,0,0,0,0,0,0,0,0,0,0,0,0,0,0,0,0,0,0,0,0,0,0,0,0,0,0,0,0,0,0,0,0,0,0,0,0,0,0,0,0,0,0,0,0,0,0,0,0,0,0,0,0,-2.9932,-2.9933,0,-3.0068,-3.0069,-3.0071,-3.0102,-3.0101,-3.01,-3.0099,-3.0238,-3.0243,-3.0247,0,0,0,0,0,0,0,0,0,0,0,0,0,-2.9699,-2.9703,-2.9932,-2.9933,-2.9935,-3.0068,-3.007,-3.0071,-3.0102,-3.0101,-3.01,-3.0099,-3.0237,-3.0242,-3.0248,0,0,0,0,0,0,0,0,0,0,0,0,0,-2.9814,-2.9705,-2.9931,-2.9966,-2.9971,-3.0067,-3.007,-3.0072,-3.0102,-3.0101,-3.01,-3.0098,-3.0235,-3.0242,-3.0249,-3.032,0,0,-3.027,-3.0273,0,0,0,0,0,0,0,0,-2.9808,-2.9823,-2.9959,-2.9964,-2.9969,-3.0067,-3.0039,-3.0155,-3.0103,-3.0052,-3.0099,-3.0098,-3.0182,-3.0194,-3.0222,-3.0326,-3.0332,-3.027,-3.0274,-3.0277,-3.0279,0,0,0,0,0,0,0,-2.98,-2.9817,-2.9986,-2.9961,-2.9967,-2.9976,-2.999,-3.0061,-3.0124,-3.0057,-3.0059,-3.0075,-3.0185,-3.0215,-3.0226,-3.0334,-3.027,-3.0276,-3.028,-3.0283,-3.0505,-3.0506,0,0,0,0,0,0,-2.9785,-2.981,-2.9981,-2.999,-2.9883,-2.9981,-2.9998,-3.0037,-3.0123,-3.0135,-3.0076,-3.0076,-3.0204,-3.0218,-3.0231,-3.032,-3.0277,-3.0284,-3.0288,-3.0503,-3.0505,-3.0507,0,0,0,0,0,0,-2.978,-2.98,-2.9976,-2.9901,-2.9924,-2.9987,-3.003,-3.004,-3.0071,-3.0138,-3.0149,-3.0096,-3.0204,-3.0221,-3.0298,-3.0325,-3.0287,-3.0293,-3.0501,-3.0503,-3.0506,-3.0498,0,0,0,0,0,0,-2.9774,-2.9798,-2.9826,-2.9901,-2.9928,-3.004,-3.0032,-3.0044,-3.0083,-3.0084,-3.0159,-3.017,-3.0204,-3.0287,-3.0304,-3.0334,-3.0299,-3.0498,-3.0502,-3.0505,-3.0496,-3.05,-3.0503,0,0,0,0,0,-2.9765,-2.9818,-2.9827,-2.9847,-2.9963,-3.0041,-3.0056,-3.0094,-3.0085,-3.0113,-3.0156,-3.0168,-3.032,-3.0295,-3.0314,-3.0346,-3.0497,-3.0501,-3.0505,-3.0494,-3.0499,-3.0503,0,0,0,0,0,0,-2.9743,-2.9828,-2.9839,-2.9918,-2.9972,-3.0046,-3.0083,-3.0098,-3.0156,-3.0155,-3.0199,-3.0216,-3.029,-3.0326,-3.0297,-3.042,-3.0408,-3.0416,-3.0393,-3.0398,-3.0402,-3.0391,-3.0304,0,0,0,0,0,-2.9748,-2.9804,-2.9876,-2.9938,-2.9965,-3.0019,-3.0055,-3.0079,-3.0137,-3.016,-3.0209,-3.0265,-3.0326,-3.0364,-3.0424,-3.0502,-3.0519,-3.0534,-3.0537,-3.054,-3.0546,-3.0591,-3.0598,-3.052,-3.052,-3.052,0,0,-2.9757,-2.9811,-2.9843,-2.9935,-2.998,-3.0038,-3.0038,-3.0099,-3.0142,-3.017,-3.0245,-3.0283,-3.0349,-3.0426,-3.0463,-3.0459,-3.0572,-3.0545,-3.0547,-3.0551,-3.0595,-3.0603,-3.0609,-3.0522,-3.0522,-3.0521,0,0,-2.9804,-2.985,-2.9907,-2.9953,-3.0021,-3.0057,-3.0071,-3.0144,-3.017,-3.0246,-3.0268,-3.0321,-3.0424,-3.047,-3.0506,-3.0573,-3.0586,-3.0591,-3.0609,-3.0652,-3.0658,-3.0664,-3.0687,-3.0695,-3.0597,-3.0597,-3.0597,0,-2.9806,-2.9894,-2.9934,-2.9995,-3.0034,-3.0063,-3.0121,-3.0164,-3.0248,-3.0275,-3.0269,-3.04,-3.0446,-3.0535,-3.0551,-3.058,-3.0597,-3.0581,-3.0654,-3.066,-3.0666,-3.0689,-3.0697,-3.0597,-3.0597,-3.0597,-3.0597,0,-2.9894,-2.9955,-2.9993,-3.0074,-3.0118,-3.0177,-3.0227,-3.0267,-3.0289,-3.0325,-3.0403,-3.046,-3.0531,-3.0555,-3.0576,-3.0648,-3.0643,-3.0645,-3.0634,-3.0673,-3.0695,-3.0704,-3.0597,-3.0597,-3.0597,-3.0597,0,0,-2.9928,-3.0032,-3.0045,-3.0083,-3.0161,-3.0209,-3.027,-3.034,-3.0374,-3.0432,-3.0484,-3.0571,-3.0574,-3.0616,-3.0643,-3.0681,-3.0729,-3.0679,-3.0681,-3.0686,-3.0811,-3.0808,-3.0817,-3.074,-3.0741,-3.0743,-3.0806,0,-2.9984,-3.0092,-3.0132,-3.0221,-3.0278,-3.0307,-3.036,-3.0414,-3.0451,-3.0505,-3.0546,-3.0607,-3.0607,-3.0632,-3.0671,-3.0715,-3.0755,-3.0712,-3.0788,-3.079,-3.0769,-3.0829,-3.0825,-3.0881,-3.0814,-3.0816,-3.0817,0,-3.0062,-3.0121,-3.0216,-3.0289,-3.0314,-3.0361,-3.0429,-3.048,-3.0543,-3.0567,-3.0614,-3.0639,-3.0705,-3.0691,-3.0781,-3.0751,-3.0785,-3.0812,-3.0815,-3.0822,-3.0804,-3.0836,-3.09,-3.0908,-3.0831,-3.083,-3.0829,0,-3.0076,-3.018,-3.0251,-3.0282,-3.0368,-3.04,-3.0438,-3.0499,-3.0539,-3.0599,-3.0626,-3.0692,-3.0729,-3.078,-3.0822,-3.0808,-3.0909,-3.0899,-3.0931,-3.093,-3.0949,-3.0947,-3.1018,-3.0973,-3.0973,-3.0973,-3.0973,0,-3.0133,-3.019,-3.0258,-3.0301,-3.0366,-3.0412,-3.0475,-3.0515,-3.0569,-3.0621,-3.0651,-3.0699,-3.0753,-3.0808,-3.0842,-3.0912,-3.0928,-3.0949,-3.0957,-3.0946,-3.0943,-3.0968,-3.0964,-3.0975,-3.0975,-3.0974,-3.0974,0,-3.0159,-3.0207,-3.0286,-3.0362,-3.0382,-3.0427,-3.0492,-3.0535,-3.0574,-3.0639,-3.0657,-3.0718,-3.0785,-3.0833,-3.0919,-3.0942,-3.1017,-3.1025,-3.0995,-3.0999,-3.1028,-3.1024,-3.1116,-3.113,-3.1077,-3.1077,-3.1078,0,-3.0191,-3.0236,-3.0317,-3.0353,-3.0391,-3.045,-3.0491,-3.0538,-3.058,-3.0656,-3.069,-3.0759,-3.0816,-3.0922,-3.0974,-3.104,-3.105,-3.1077,-3.106,-3.1047,-3.1049,-3.1045,-3.105,-3.1079,-3.108,-3.108,-3.108,0,-3.0243,-3.0265,-3.0323,-3.039,-3.0438,-3.0493,-3.0549,-3.0577,-3.0634,-3.068,-3.0749,-3.0793,-3.0882,-3.095,-3.1021,-3.1061,-3.108,-3.1086,-3.1096,-3.1084,-3.1065,-3.1075,-3.1001,-3.1083,-3.1083,-3.1082,-3.1082,-3.1082,-3.0273,-3.0314,-3.0377,-3.0441,-3.0488,-3.054,-3.0584,-3.0629,-3.0687,-3.0762,-3.0787,-3.0858,-3.0921,-3.1019,-3.106,-3.1116,-3.1115,-3.1131,-3.1135,-3.1137,-3.1136,-3.1057,-3.113,-3.113,-3.113,-3.113,-3.113,0,-3.0325,-3.0368,-3.0426,-3.0503,-3.0554,-3.0569,-3.0631,-3.0672,-3.0735,-3.0792,-3.0848,-3.0927,-3.0994,-3.1052,-3.1121,-3.1155,-3.1166,-3.1172,-3.1169,-3.1178,-3.1134,-3.1117,-3.1162,-3.1162,-3.1162,-3.1162,-3.1162,-3.1162,-3.0358,-3.0428,-3.0458,-3.0553,-3.0595,-3.0665,-3.0699,-3.0747,-3.0793,-3.088,-3.0936,-3.0973,-3.1031,-3.1105,-3.1167,-3.1182,-3.1206,-3.1209,-3.1227,-3.1184,-3.1181,-3.1177,-3.1161,-3.1215,-3.1215,-3.1266,-3.1266,-3.1267]},{"header":{"parameterUnit":"m.s-1","parameterCategory":1,"la1":30.2991,"la2":30.254,"lo1":-89.0895,"lo2":-89.0444,"dy":0.0017,"dx":0.0017,"nx":28,"ny":28,"refTime":"2025-04-19T21:00:00:Z","depth":0,"parameterNumber":3,"parameterNumberName":"V-component_of_WINDS"},"data":[0,0,0,0,0,0,0,0,0,0,0,0,0,0,0,0,0,0,0,0,0,0,0,0,0,0,0,0,0,0,0,0,0,0,0,0,0,0,0,0,0,0,0,0,0,0,0,0,0,0,0,0,0,0,0,0,0,0,4.0022,4.0023,0,4.0127,4.0128,4.013,4.0111,4.0109,4.0107,4.0105,4.0212,4.0216,4.0221,0,0,0,0,0,0,0,0,0,0,0,0,0,3.9805,3.9809,4.0022,4.0023,4.0024,4.0127,4.0129,4.013,4.0111,4.0109,4.0106,4.0104,4.0211,4.0216,4.0221,0,0,0,0,0,0,0,0,0,0,0,0,0,3.9903,3.981,4.0022,4.0027,4.0029,4.0127,4.0129,4.013,4.0111,4.0109,4.0106,4.0103,4.0209,4.0215,4.0222,4.0321,0,0,4.0243,4.0246,0,0,0,0,0,0,0,0,3.9898,3.9911,4.0025,4.0027,4.0029,4.0103,4.0091,4.0194,4.0112,4.008,4.0105,4.0102,4.0178,4.0187,4.0213,4.0326,4.033,4.0244,4.0248,4.0251,4.0253,0,0,0,0,0,0,0,3.9891,3.9907,4.0063,4.0027,4.0029,4.0025,4.0036,4.0111,4.0143,4.0083,4.0081,4.0094,4.0178,4.0206,4.0215,4.0332,4.0244,4.025,4.0254,4.0257,4.0534,4.0537,0,0,0,0,0,0,3.9882,3.9901,4.006,4.0067,3.9955,4.0031,4.0043,4.0082,4.0142,4.0149,4.0097,4.0093,4.0196,4.0207,4.0219,4.034,4.0251,4.0257,4.0261,4.053,4.0534,4.0538,0,0,0,0,0,0,3.9878,3.9897,4.0056,3.9984,4.0004,4.0038,4.0081,4.0086,4.0114,4.0153,4.0159,4.0119,4.0194,4.0209,4.0296,4.0344,4.026,4.0267,4.0527,4.0532,4.0536,4.0582,0,0,0,0,0,0,3.9872,3.9895,3.9933,3.9985,4.0008,4.0131,4.0084,4.009,4.0126,4.0122,4.0176,4.0182,4.0193,4.0286,4.0303,4.0352,4.0272,4.0522,4.0529,4.0534,4.0577,4.0588,4.0598,0,0,0,0,0,3.9864,3.9941,3.9935,3.9954,4.0055,4.0134,4.0147,4.0159,4.0129,4.0168,4.0194,4.018,4.0336,4.0295,4.0314,4.0365,4.0519,4.0527,4.0534,4.0572,4.0586,4.0598,0,0,0,0,0,0,3.9892,3.9947,3.9941,4.0037,4.0081,4.013,4.0179,4.0173,4.0225,4.022,4.0232,4.0244,4.0333,4.0358,4.0312,4.0465,4.0424,4.0435,4.0446,4.046,4.047,4.0462,4.0278,0,0,0,0,0,3.991,3.9969,4.0014,4.0094,4.0117,4.0144,4.0179,4.0185,4.023,4.0249,4.0281,4.0326,4.0385,4.0423,4.048,4.058,4.0593,4.0625,4.0636,4.0644,4.0654,4.0712,4.0727,4.0562,4.0562,4.0561,0,0,3.9946,3.9984,4.002,4.0101,4.0136,4.0198,4.016,4.0226,4.0273,4.0259,4.0343,4.0369,4.042,4.0514,4.0558,4.0538,4.0703,4.0654,4.066,4.0665,4.0721,4.0736,4.075,4.0567,4.0566,4.0565,0,0,4.0044,4.0078,4.015,4.0186,4.024,4.0258,4.0275,4.0326,4.0343,4.0428,4.042,4.0475,4.0576,4.0614,4.0646,4.0762,4.0752,4.078,4.0835,4.0891,4.0904,4.0916,4.0959,4.0974,4.0789,4.079,4.079,0,4.0083,4.0176,4.0187,4.0256,4.0292,4.0284,4.0357,4.0391,4.0461,4.0486,4.0463,4.0592,4.0625,4.073,4.0759,4.0784,4.0806,4.0774,4.0901,4.0913,4.0924,4.0965,4.0981,4.0793,4.0792,4.0792,4.0792,0,4.0221,4.0286,4.0337,4.0406,4.0448,4.0519,4.0542,4.0583,4.0586,4.0607,4.0695,4.0735,4.0801,4.0826,4.0828,4.0932,4.0919,4.0898,4.0857,4.0943,4.0982,4.0998,4.0797,4.0796,4.0795,4.0794,0,0,4.0339,4.0415,4.0434,4.0466,4.0525,4.0576,4.0647,4.0712,4.0748,4.0797,4.0857,4.0944,4.0927,4.0964,4.0971,4.1019,4.1111,4.0994,4.0995,4.1015,4.123,4.1246,4.1264,4.1105,4.1108,4.1111,4.1226,0,4.0444,4.0569,4.0583,4.0695,4.0756,4.075,4.0812,4.0856,4.0878,4.0934,4.0958,4.102,4.0992,4.1014,4.1062,4.109,4.1155,4.1081,4.1163,4.1165,4.1151,4.1284,4.13,4.1407,4.1241,4.1244,4.1246,0,4.0583,4.0637,4.0756,4.0809,4.0835,4.0891,4.0953,4.1006,4.1056,4.1069,4.1112,4.1113,4.1187,4.1142,4.1246,4.1196,4.123,4.1249,4.1253,4.1262,4.1211,4.1297,4.1441,4.1458,4.127,4.1268,4.1266,0,4.0659,4.0761,4.0846,4.0874,4.0938,4.0977,4.1006,4.1054,4.1093,4.1147,4.1173,4.1235,4.1269,4.1318,4.1336,4.1301,4.1439,4.1395,4.1453,4.1453,4.1482,4.148,4.1635,4.1503,4.1502,4.1502,4.1502,0,4.0775,4.0849,4.0882,4.0934,4.1017,4.1032,4.1114,4.114,4.1183,4.1241,4.1239,4.1294,4.1314,4.1373,4.1388,4.1472,4.1487,4.15,4.1504,4.1501,4.15,4.1524,4.1518,4.1506,4.1505,4.1505,4.1504,0,4.0874,4.0899,4.0992,4.1046,4.1061,4.112,4.1166,4.1217,4.1239,4.1313,4.1331,4.1366,4.1435,4.1458,4.1541,4.1551,4.165,4.1646,4.1634,4.1634,4.1691,4.1686,4.1868,4.1894,4.1743,4.1744,4.1745,0,4.0947,4.1004,4.1065,4.1104,4.1134,4.1197,4.1238,4.1256,4.1298,4.1361,4.1405,4.1474,4.153,4.164,4.1673,4.1737,4.1736,4.1795,4.1745,4.1742,4.1738,4.1735,4.1742,4.1804,4.1806,4.1807,4.1808,0,4.1075,4.1085,4.1144,4.1208,4.1257,4.1308,4.1357,4.1389,4.1415,4.1463,4.1534,4.1577,4.1663,4.1732,4.1798,4.1828,4.1823,4.1824,4.1841,4.184,4.1831,4.1838,4.166,4.182,4.1818,4.1818,4.1817,4.1817,4.1164,4.1215,4.1267,4.1333,4.1372,4.1419,4.1471,4.15,4.156,4.1632,4.1639,4.1716,4.1767,4.1855,4.1888,4.1949,4.1933,4.1957,4.1963,4.1969,4.1975,4.182,4.1961,4.1961,4.1961,4.196,4.196,0,4.1293,4.1327,4.1388,4.1458,4.151,4.1502,4.1557,4.1601,4.1669,4.1718,4.1773,4.1856,4.1923,4.1962,4.203,4.2072,4.2071,4.2089,4.2086,4.2094,4.1985,4.1964,4.2088,4.2088,4.2088,4.2088,4.2088,4.2088,4.1367,4.1453,4.147,4.1577,4.161,4.1686,4.1718,4.1762,4.1801,4.1894,4.195,4.1975,4.2021,4.2092,4.2154,4.2163,4.2189,4.2209,4.2217,4.2114,4.2101,4.2089,4.207,4.2214,4.2214,4.2322,4.2323,4.2323]}]]